GBOIL EGCB-EGCB

Flight info

Callsign GBOIL
Flight time 0h 10m
Altitude 3000
Route MIRSI
Aircraft C172/L-SFG/C

Departure

Time 2026-04-23 20:08
Airport Manchester Barton Aerodrome (EGCB)

Arrival

Time 2026-04-23 20:18
Airport Manchester Barton Aerodrome (EGCB)
Time Latitude Longitude Altitude Speed Heading
2026-04-23 20:01 53.47067 -2.38750 72 ft 0 kts 38°
2026-04-23 20:02 53.47081 -2.38764 71 ft 10 kts 314°
2026-04-23 20:03 53.47122 -2.38902 74 ft 14 kts 268°
2026-04-23 20:03 53.47105 -2.39043 73 ft 10 kts 255°
2026-04-23 20:03 53.47097 -2.39116 72 ft 8 kts 265°
2026-04-23 20:03 53.47089 -2.39229 72 ft 14 kts 257°
2026-04-23 20:04 53.47097 -2.39430 70 ft 19 kts 330°
2026-04-23 20:04 53.47140 -2.39245 69 ft 37 kts 84°
2026-04-23 20:04 53.47196 -2.38576 94 ft 75 kts 78°
2026-04-23 20:04 53.47279 -2.37690 318 ft 74 kts 81°
2026-04-23 20:05 53.47355 -2.36846 552 ft 78 kts 71°
2026-04-23 20:05 53.47760 -2.36897 652 ft 95 kts 293°
2026-04-23 20:05 53.47750 -2.38146 668 ft 116 kts 268°
2026-04-23 20:05 53.47619 -2.39547 644 ft 121 kts 263°
2026-04-23 20:06 53.47481 -2.40807 531 ft 94 kts 260°
2026-04-23 20:06 53.47111 -2.41337 400 ft 71 kts 172°
2026-04-23 20:06 53.46917 -2.40725 335 ft 72 kts 63°
2026-04-23 20:06 53.47075 -2.39960 178 ft 71 kts 75°
2026-04-23 20:07 53.47146 -2.39147 69 ft 66 kts 76°
2026-04-23 20:07 53.47215 -2.38302 214 ft 74 kts 74°
2026-04-23 20:07 53.47349 -2.37389 365 ft 87 kts 69°
2026-04-23 20:07 53.47787 -2.36956 659 ft 86 kts 352°
2026-04-23 20:08 53.48247 -2.37644 727 ft 110 kts 271°
2026-04-23 20:08 53.48090 -2.38994 739 ft 126 kts 256°
2026-04-23 20:08 53.47744 -2.40395 697 ft 133 kts 243°
2026-04-23 20:08 53.47176 -2.41688 438 ft 126 kts 216°
2026-04-23 20:09 53.46515 -2.41406 377 ft 100 kts 128°
2026-04-23 20:09 53.46514 -2.40411 393 ft 105 kts 26°
2026-04-23 20:09 53.47070 -2.39818 268 ft 80 kts 70°
2026-04-23 20:09 53.47160 -2.38967 86 ft 64 kts 75°
2026-04-23 20:10 53.47202 -2.38532 186 ft 58 kts 73°
2026-04-23 20:10 53.47357 -2.37560 306 ft 76 kts 58°
2026-04-23 20:10 53.47861 -2.37512 458 ft 87 kts 345°
2026-04-23 20:10 53.48153 -2.38256 625 ft 105 kts 248°
2026-04-23 20:11 53.47866 -2.39570 477 ft 133 kts 240°
2026-04-23 20:11 53.47375 -2.40721 584 ft 103 kts 234°
2026-04-23 20:11 53.46970 -2.41532 557 ft 77 kts 210°
2026-04-23 20:11 53.46850 -2.41044 398 ft 71 kts 59°
2026-04-23 20:12 53.47058 -2.40259 244 ft 79 kts 73°
2026-04-23 20:12 53.47127 -2.39372 75 ft 69 kts 78°
2026-04-23 20:12 53.47225 -2.38653 177 ft 61 kts 73°
2026-04-23 20:12 53.47371 -2.37905 260 ft 81 kts 66°
2026-04-23 20:13 53.47740 -2.37319 493 ft 83 kts 341°
2026-04-23 20:13 53.48143 -2.38134 627 ft 104 kts 274°
2026-04-23 20:13 53.47699 -2.39170 639 ft 124 kts 223°
2026-04-23 20:13 53.47024 -2.40136 725 ft 125 kts 218°
2026-04-23 20:14 53.46335 -2.41058 704 ft 125 kts 217°
2026-04-23 20:14 53.45672 -2.41087 735 ft 96 kts 125°
2026-04-23 20:14 53.45814 -2.40235 519 ft 86 kts 30°
2026-04-23 20:14 53.46534 -2.40230 305 ft 116 kts 357°
2026-04-23 20:15 53.47058 -2.39855 200 ft 76 kts 67°
2026-04-23 20:15 53.47153 -2.39026 74 ft 62 kts 77°
2026-04-23 20:15 53.47196 -2.38397 172 ft 56 kts 82°
2026-04-23 20:15 53.47351 -2.37863 211 ft 61 kts 353°
2026-04-23 20:16 53.47781 -2.38222 267 ft 82 kts 295°
2026-04-23 20:16 53.47546 -2.39242 310 ft 100 kts 242°
2026-04-23 20:16 53.47194 -2.40102 536 ft 106 kts 238°
2026-04-23 20:16 53.46611 -2.41056 395 ft 123 kts 208°
2026-04-23 20:17 53.45953 -2.40958 579 ft 85 kts 98°
2026-04-23 20:17 53.46317 -2.40394 354 ft 90 kts
2026-04-23 20:17 53.46919 -2.40189 249 ft 81 kts 32°
2026-04-23 20:17 53.47127 -2.39360 82 ft 79 kts 80°
2026-04-23 20:18 53.47186 -2.38633 78 ft 38 kts 88°
2026-04-23 20:18 53.47136 -2.38602 77 ft 11 kts 253°
2026-04-23 20:18 53.47108 -2.38642 75 ft 7 kts 160°
2026-04-23 20:18 53.47091 -2.38635 75 ft 3 kts 329°
2026-04-23 20:19 53.47095 -2.38637 75 ft 0 kts 343°
2026-04-23 20:26 53.47124 -2.38688 77 ft 16 kts 266°
2026-04-23 20:26 53.47104 -2.39026 73 ft 32 kts 259°
2026-04-23 20:26 53.47096 -2.39346 71 ft 24 kts 282°
2026-04-23 20:26 53.47133 -2.39434 71 ft 12 kts 79°
2026-04-23 20:27 53.47153 -2.39015 74 ft 59 kts 87°
2026-04-23 20:27 53.47234 -2.38240 248 ft 68 kts 75°
2026-04-23 20:27 53.47388 -2.37436 458 ft 72 kts 39°
2026-04-23 20:27 53.47815 -2.37731 663 ft 88 kts 285°
2026-04-23 20:28 53.47738 -2.38903 732 ft 110 kts 257°
2026-04-23 20:28 53.47588 -2.39777 732 ft 123 kts 254°
2026-04-23 20:28 53.47265 -2.41080 887 ft 124 kts 244°
2026-04-23 20:28 53.46879 -2.42297 1132 ft 115 kts 233°
2026-04-23 20:29 53.46334 -2.42339 1041 ft 72 kts 99°
2026-04-23 20:29 53.46554 -2.41662 722 ft 66 kts 48°
2026-04-23 20:29 53.46831 -2.41091 464 ft 60 kts 52°
2026-04-23 20:29 53.47033 -2.40464 275 ft 65 kts 72°
2026-04-23 20:30 53.47096 -2.39764 212 ft 56 kts 75°
2026-04-23 20:30 53.46855 -2.39899 354 ft 62 kts 344°
2026-04-23 20:30 53.47128 -2.39369 86 ft 78 kts 81°
2026-04-23 20:31 53.47189 -2.38595 202 ft 58 kts 79°
2026-04-23 20:31 53.47261 -2.37912 280 ft 63 kts 72°
2026-04-23 20:31 53.47497 -2.37171 409 ft 80 kts 20°
2026-04-23 20:31 53.48047 -2.37438 661 ft 82 kts 334°
2026-04-23 20:32 53.48210 -2.38328 833 ft 98 kts 253°
2026-04-23 20:32 53.47991 -2.39503 985 ft 112 kts 254°
2026-04-23 20:32 53.47748 -2.40834 957 ft 129 kts 253°
2026-04-23 20:32 53.47433 -2.42278 996 ft 132 kts 236°
2026-04-23 20:33 53.46785 -2.42718 1077 ft 76 kts 137°
2026-04-23 20:33 53.46814 -2.42004 816 ft 64 kts 70°
2026-04-23 20:33 53.46944 -2.41293 496 ft 65 kts 75°
2026-04-23 20:33 53.47024 -2.40546 276 ft 61 kts 77°
2026-04-23 20:34 53.47099 -2.39775 127 ft 73 kts 76°
2026-04-23 20:34 53.47162 -2.38998 89 ft 61 kts 78°
2026-04-23 20:34 53.47209 -2.38277 195 ft 64 kts 82°
2026-04-23 20:34 53.47281 -2.37568 307 ft 70 kts 76°
2026-04-23 20:35 53.47672 -2.37254 478 ft 80 kts 345°
2026-04-23 20:35 53.48196 -2.37692 690 ft 87 kts 327°
2026-04-23 20:35 53.48466 -2.38551 936 ft 94 kts 255°
2026-04-23 20:35 53.48207 -2.39668 1052 ft 112 kts 248°
2026-04-23 20:36 53.47920 -2.40958 1000 ft 128 kts 252°
2026-04-23 20:36 53.47724 -2.42313 1029 ft 101 kts 252°
2026-04-23 20:36 53.47328 -2.42786 974 ft 66 kts 158°
2026-04-23 20:36 53.46998 -2.42420 808 ft 54 kts 115°
2026-04-23 20:37 53.46949 -2.41788 560 ft 57 kts 85°
2026-04-23 20:37 53.46980 -2.41116 359 ft 57 kts 79°
2026-04-23 20:37 53.47041 -2.40411 214 ft 60 kts 75°
2026-04-23 20:37 53.47093 -2.39761 110 ft 55 kts 79°
2026-04-23 20:38 53.47138 -2.39287 68 ft 36 kts 82°
2026-04-23 20:38 53.47177 -2.38851 74 ft 31 kts 84°
2026-04-23 20:38 53.47173 -2.38704 72 ft 1 kts 97°
2026-04-23 20:38 53.47173 -2.38703 72 ft 0 kts 97°
2026-04-23 20:39 53.47172 -2.38664 75 ft 10 kts 90°
2026-04-23 20:40 53.47157 -2.38630 69 ft 8 kts 257°
2026-04-23 20:40 53.47150 -2.38686 74 ft 2 kts 251°
2026-04-23 20:40 53.47126 -2.38777 73 ft 9 kts 256°
2026-04-23 20:40 53.47124 -2.38793 70 ft 0 kts 260°
2026-04-23 20:41 53.47114 -2.38800 70 ft 13 kts 145°
2026-04-23 20:41 53.47035 -2.38792 72 ft 0 kts 220°
2026-04-23 20:42 53.47033 -2.38794 73 ft 5 kts 228°
2026-04-23 20:42 53.47079 -2.38955 70 ft 15 kts 285°
2026-04-23 20:43 53.47105 -2.39118 71 ft 18 kts 261°
2026-04-23 20:43 53.47087 -2.39352 71 ft 31 kts 275°
2026-04-23 20:43 53.47147 -2.39453 67 ft 19 kts 81°
2026-04-23 20:43 53.47153 -2.39397 70 ft 4 kts 85°
2026-04-23 20:44 53.47142 -2.39490 72 ft 23 kts 275°
2026-04-23 20:44 53.47125 -2.39708 74 ft 11 kts 75°
2026-04-23 20:44 53.47147 -2.39561 74 ft 11 kts 89°
2026-04-23 20:44 53.47150 -2.39488 66 ft 0 kts 83°
2026-04-23 20:46 53.47172 -2.39130 71 ft 56 kts 85°
2026-04-23 20:46 53.47216 -2.38361 135 ft 76 kts 87°
2026-04-23 20:46 53.47345 -2.37690 274 ft 72 kts 24°
2026-04-23 20:46 53.47809 -2.37955 537 ft 55 kts 323°
2026-04-23 20:47 53.48188 -2.38614 600 ft 87 kts 317°
2026-04-23 20:47 53.48580 -2.39355 852 ft 92 kts 310°
2026-04-23 20:47 53.48889 -2.40374 869 ft 110 kts 302°
2026-04-23 20:47 53.49287 -2.41428 765 ft 116 kts 302°
2026-04-23 20:48 53.49439 -2.42656 1035 ft 110 kts 271°
2026-04-23 20:48 53.49463 -2.43806 1451 ft 75 kts 277°
2026-04-23 20:48 53.49610 -2.45012 1025 ft 137 kts 266°
2026-04-23 20:48 53.49239 -2.46402 1112 ft 126 kts 252°
2026-04-23 20:49 53.49210 -2.47835 1240 ft 121 kts 269°
2026-04-23 20:49 53.49202 -2.49225 1361 ft 119 kts 270°
2026-04-23 20:49 53.49193 -2.50638 1437 ft 121 kts 270°
2026-04-23 20:49 53.49191 -2.51932 1773 ft 105 kts 269°
2026-04-23 20:50 53.49199 -2.53132 2018 ft 101 kts 269°
2026-04-23 20:50 53.49214 -2.54273 2263 ft 96 kts 270°
2026-04-23 20:50 53.49235 -2.55385 2468 ft 98 kts 270°
2026-04-23 20:50 53.49333 -2.56635 2490 ft 118 kts 297°
2026-04-23 20:51 53.49939 -2.57643 2489 ft 128 kts 320°
2026-04-23 20:51 53.50612 -2.58664 2486 ft 135 kts 320°
2026-04-23 20:51 53.51331 -2.59719 2487 ft 138 kts 320°
2026-04-23 20:51 53.52061 -2.60791 2489 ft 139 kts 320°
2026-04-23 20:52 53.52792 -2.61864 2492 ft 139 kts 320°
2026-04-23 20:52 53.53516 -2.62929 2492 ft 140 kts 320°
2026-04-23 20:52 53.54249 -2.64007 2492 ft 139 kts 320°
2026-04-23 20:52 53.54979 -2.65081 2492 ft 140 kts 320°
2026-04-23 20:53 53.55704 -2.66147 2487 ft 140 kts 320°
2026-04-23 20:53 53.56437 -2.67224 2487 ft 140 kts 320°
2026-04-23 20:53 53.57185 -2.68275 2487 ft 140 kts 331°
2026-04-23 20:53 53.58116 -2.68537 2490 ft 136 kts
2026-04-23 20:54 53.59060 -2.68552 2489 ft 135 kts
2026-04-23 20:54 53.59798 -2.67813 2488 ft 123 kts 68°
2026-04-23 20:54 53.59754 -2.66510 2494 ft 114 kts 128°
2026-04-23 20:54 53.59038 -2.66056 2497 ft 118 kts 179°
2026-04-23 20:55 53.58214 -2.66140 2489 ft 118 kts 180°
2026-04-23 20:55 53.57383 -2.66222 2487 ft 120 kts 180°
2026-04-23 20:55 53.56558 -2.66308 2485 ft 120 kts 180°
2026-04-23 20:55 53.55846 -2.67023 2486 ft 131 kts 236°
2026-04-23 20:56 53.55845 -2.68551 2491 ft 140 kts 296°
2026-04-23 20:56 53.56611 -2.69470 2483 ft 138 kts 355°
2026-04-23 20:56 53.57564 -2.69522 2481 ft 136 kts
2026-04-23 20:56 53.58510 -2.69548 2480 ft 136 kts
2026-04-23 20:57 53.59367 -2.69131 2486 ft 127 kts 50°
2026-04-23 20:57 53.59696 -2.67845 2489 ft 121 kts 80°
2026-04-23 20:57 53.59873 -2.66476 2488 ft 117 kts 100°
2026-04-23 20:57 53.59386 -2.65503 2490 ft 116 kts 162°
2026-04-23 20:58 53.58568 -2.65510 2492 ft 118 kts 180°
2026-04-23 20:58 53.57744 -2.65591 2493 ft 119 kts 180°
2026-04-23 20:58 53.56929 -2.65510 2479 ft 118 kts 153°
2026-04-23 20:58 53.56289 -2.64668 2482 ft 116 kts 140°
2026-04-23 20:59 53.55673 -2.63808 2480 ft 116 kts 140°
2026-04-23 20:59 53.55051 -2.62934 2480 ft 116 kts 140°
2026-04-23 20:59 53.54431 -2.62064 2479 ft 116 kts 140°
2026-04-23 20:59 53.53810 -2.61194 2478 ft 116 kts 140°
2026-04-23 21:00 53.53196 -2.60333 2477 ft 116 kts 140°
2026-04-23 21:00 53.52574 -2.59461 2477 ft 115 kts 140°
2026-04-23 21:00 53.51960 -2.58602 2471 ft 113 kts 140°
2026-04-23 21:00 53.51373 -2.57788 2468 ft 110 kts 140°
2026-04-23 21:01 53.50740 -2.56939 2235 ft 118 kts 140°
2026-04-23 21:01 53.50153 -2.56053 1975 ft 109 kts 123°
2026-04-23 21:01 53.49806 -2.55059 1966 ft 90 kts 121°
2026-04-23 21:01 53.49508 -2.54218 1966 ft 78 kts 120°
2026-04-23 21:02 53.49244 -2.53468 1996 ft 78 kts 119°
2026-04-23 21:02 53.48927 -2.52575 2005 ft 101 kts 120°
2026-04-23 21:02 53.48530 -2.51446 1840 ft 120 kts 120°
2026-04-23 21:02 53.48137 -2.50359 1557 ft 102 kts 120°
2026-04-23 21:03 53.47778 -2.49386 1285 ft 94 kts 120°
2026-04-23 21:03 53.47443 -2.48470 1085 ft 89 kts 115°
2026-04-23 21:03 53.47280 -2.47513 942 ft 81 kts 98°
2026-04-23 21:03 53.47214 -2.46540 823 ft 86 kts 91°
2026-04-23 21:04 53.47172 -2.45578 802 ft 79 kts 95°
2026-04-23 21:04 53.47124 -2.44763 835 ft 67 kts 93°
2026-04-23 21:04 53.47086 -2.43892 693 ft 81 kts 92°
2026-04-23 21:04 53.47041 -2.42920 584 ft 85 kts 96°
2026-04-23 21:05 53.47015 -2.41918 480 ft 88 kts 89°
2026-04-23 21:05 53.47021 -2.40986 386 ft 73 kts 89°
2026-04-23 21:05 53.47066 -2.40146 235 ft 73 kts 83°
2026-04-23 21:05 53.47133 -2.39316 67 ft 63 kts 81°
2026-04-23 21:06 53.47090 -2.38865 73 ft 27 kts 118°
2026-04-23 21:06 53.47012 -2.38872 74 ft 0 kts 226°